Weather 🌤️

Recent data

Temperatures

Wind

Pressure

Humidity & Precipitation

Last data
obsTime qcStatus tempAvg heatindexAvg windspeedAvg windgustAvg winddirAvg pressureAvg humidityAvg precipRate precipTotal
2026-09-03 10:59:55 1 22.2 21.9 1.4 5 177 1004.06 54 0 0
2026-09-03 10:54:52 1 21.9 21.5 1.4 5 180 1004.23 54.8 0 0
2026-09-03 10:49:52 1 21.6 21.2 1.8 5 160 1004.23 55 0 0
2026-09-03 10:44:52 1 21.3 21 2.5 5 222 1004.06 55.3 0 0
2026-09-03 10:39:54 1 21.1 20.8 3.1 5 173 1004.23 55.8 0 0
2026-09-03 10:34:53 1 20.8 20.8 1.8 5 191 1004.06 56 0 0
2026-09-03 10:29:52 1 20.6 20.6 1.5 4 196 1004.23 56 0 0
2026-09-03 10:24:52 1 20.4 20.4 0.9 4 203 1004.23 56.4 0 0
2026-09-03 10:19:52 1 20.2 20.2 0.9 4 201 1004.06 56.6 0 0
2026-09-03 10:14:52 1 20.1 20.1 0.9 4 166 1004.06 56.5 0 0
2026-09-03 10:09:51 1 19.9 19.9 1.6 4 171 1004.23 57 0 0
2026-09-03 10:04:55 1 19.8 19.8 1.3 4 167 1004.06 57 0 0

Hourly data

Temperatures

Wind

Pressure

Humidity & Precipitation

Last data
obsTime qcStatus tempAvg heatindexAvg windspeedAvg windgustAvg winddirAvg pressureAvg humidityAvg precipRate precipTotal
2026-09-03 10:59:55 1 20.8 20.7 1.6 4.5 181 1004.23 55.9 0 0
2026-09-03 09:59:54 1 19.3 19.3 1 3.6 183 1004.23 57.9 0 0
2026-09-03 08:59:52 0 18.6 18.6 0.5 2.6 187 1004.07 58.3 0 0
2026-09-03 07:59:52 0 18.3 18.3 0.1 2 183 1003.56 58 0 0
2026-09-03 06:59:53 0 18.7 18.7 0.2 2.3 151 1003.05 56.3 0 0
2026-09-03 05:59:52 0 19.6 19.6 0.5 3 167 1002.88 54.1 0 0
2026-09-03 04:59:52 0 20.7 20.7 0.6 3.8 229 1002.71 52.3 0 0
2026-09-03 03:59:52 0 21.4 20.9 0.1 3 204 1002.71 50.3 0 0
2026-09-03 02:59:52 0 22.1 21.6 0.4 4 220 1002.71 48.4 0 0
2026-09-03 01:59:52 0 22.6 22.1 0.5 6.5 218 1002.54 46.7 0 0
2026-09-03 00:59:54 0 23.1 22.6 4.4 7.8 224 1002.54 44.7 0 0
2026-09-02 23:59:52 0 23.9 23.4 4.9 8 229 1002.03 42.9 0 0
2026-09-02 22:59:51 0 24.7 24.3 0.7 5.8 214 1001.69 40.9 0 0
2026-09-02 21:59:55 0 25.7 25.4 1 7.8 225 1001.19 39.3 0 0
2026-09-02 20:59:53 0 26.8 26.5 3.1 8.5 228 1000.34 38.5 0 0
2026-09-02 19:59:52 1 27.9 27.5 1.9 8.3 211 1000 38.5 0 0
2026-09-02 18:59:52 1 28.3 27.8 4 17.3 217 999.66 38.2 0 0
2026-09-02 17:59:52 1 27.9 27.7 3.5 9.5 216 1000 41.2 0 0
2026-09-02 16:59:52 1 27.6 27.5 3.6 10.1 263 1000 42.7 0 0
2026-09-02 15:59:52 1 27 27.1 4 8.9 232 1000.34 44.7 0 0
2026-09-02 14:59:52 1 26.4 26.3 3.6 10.5 245 1000.68 46.6 0 0
2026-09-02 13:59:52 1 25.5 25.4 3.4 9.9 210 1001.02 49.1 0 0
2026-09-02 12:59:52 1 24.6 24.4 2.9 7.3 213 1001.36 51.6 0 0
2026-09-02 11:59:52 1 23.1 22.8 2.5 6.1 201 1001.53 54.3 0 0